• MPC Preparation (Info)

  • MPEC 2022-D65 : 2022 DO1

    The following Minor Planet Electronic Circular may be linked-to from your own Web pages, but must not otherwise be redistributed electronically.

    A form allowing access to any MPEC is at the bottom of this page.


    Read MPEC 2022-D64 Read MPEC 2022-D66


    M.P.E.C. 2022-D65                             Issued 2022 February 26, 13:04 UT
    
         The Minor Planet Electronic Circulars contain information on unusual
             minor planets and routine data on comets.  They are published
        on behalf of Division F of the International Astronomical Union by the
              Minor Planet Center, Smithsonian Astrophysical Observatory,
                              Cambridge, MA 02138, U.S.A.
    
                 Prepared using the Tamkin Foundation Computer Network
    
                                  MPC@CFA.HARVARD.EDU
                URL https://www.minorplanetcenter.net/    ISSN 1523-6714
    
                                    2022 DO1                                 
    
    
    Observations:
         K22D01O  C2022 02 24.39363111 01 40.499+06 24 49.90         21.78wUED065F52
         K22D01O  C2022 02 24.40584511 01 43.654+06 24 50.57         21.61wUED065F52
         K22D01O  C2022 02 24.41807511 01 46.845+06 24 51.42         22.10wUED065F52
         K22D01O  C2022 02 24.42255011 01 48.008+06 24 51.80         21.95wUED065F52
         K22D01O* C2022 02 24.42499311 01 48.626+06 24 51.75         22.09wUED065F52
         K22D01O  C2022 02 24.44946811 01 54.979+06 24 53.15         21.76wUED065F52
         K22D01O  C2022 02 24.46179111 01 58.143+06 24 53.29         21.81wUED065F52
         K22D01O ^C2022 02 25.35351511 06 58.559+06 25 26.40         21.65GVED065568
         K22D01O ^C2022 02 25.35547411 06 59.201+06 25 26.58         21.61GVED065568
         K22D01O ^C2022 02 25.35645211 06 59.522+06 25 26.67         21.62GVED065568
         K22D01O 1C2022 02 26.06266 11 11 30.34 +06 24 55.4          21.9 VVED065033
         K22D01O 1C2022 02 26.06526 11 11 31.34 +06 24 56.4          22.0 VVED065033
         K22D01O 1C2022 02 26.06786 11 11 32.35 +06 24 56.2          21.6 VVED065033
         K22D01O |C2022 02 26.15822 11 12 16.88 +06 27 50.2          21.5 VuED065807
         K22D01O |C2022 02 26.16912 11 12 21.15 +06 27 51.3          21.5 VuED065807
         K22D01O |C2022 02 26.18004 11 12 25.44 +06 27 52.2          21.3 VuED065807
         K22D01O KC2022 02 26.24847011 12 57.39 +06 25 36.2          20.97GVED065I52
         K22D01O KC2022 02 26.25266511 12 59.09 +06 25 35.8          22.06GVED065I52
    
    Observer details:
    033 Karl Schwarzschild Observatory, Tautenburg.  Observers S. Melnikov, C.
        Hoegner, U. Laux, F. Ludwig, B. Stecklum.  Measurer B. Stecklum.  1.34-m
        f/3 Schmidt + CCD.
    568 Mauna Kea.  Observers R. Wainscoat, C. Cunningham, T. Burdullis.
        Measurers R. Weryk, R. Wainscoat.  3.6-m Canada-France-Hawaii Telescope +
        CCD.
    807 Cerro Tololo Observatory, La Serena.  Observers T. Linder, R. Holmes, L.
        Horn.  0.61-m f/6.5 astrograph + CCD.
    F52 Pan-STARRS 2, Haleakala.  Observers J. Bulger, T. Lowe, A. Schultz, I.
        Smith.  Measurers K. Chambers, S. Chastel, T. de Boer, J. Fairlamb, H.
        Gao, M. Huber, C.-C. Lin, E. Magnier, Y. Ramanjooloo, R. Wainscoat, R.
        Weryk.  1.8-m Ritchey-Chretien + CCD.
    I52 Steward Observatory, Mt. Lemmon Station.  Observer A. R. Gibbs.  Measurers
        E. J. Christensen, G. A. Farneth, J. B. Fazekas, D. C. Fuls, A. R. Gibbs,
        A. D. Grauer, H. Groeller, R. A. Kowalski, S. M. Larson, G. J. Leonard, D.
        Rankin, R. L. Seaman, A. Serrano, F. C. Shelly, K. W. Wierzchos.
    
    Orbital elements:
    2022 DO1                                                 Earth MOID = 0.0069 AU
    Epoch 2022 Jan. 21.0 TT = JDT 2459600.5                 Veres                   
    M 320.68358              (2000.0)            P               Q                  
    n   0.44738826     Peri.   73.55962     -0.65160637     +0.75840544             
    a   1.6930885      Node   155.75723     -0.70930343     -0.60208326             
    e   0.5227800      Incl.    2.11819     -0.26888247     -0.24963360             
    P   2.20           H   26.78          G   0.15           U   7                  
    Residuals in seconds of arc
    220224 F52  0.0   0.1-    220224 F52  0.1-  0.2-    220226 033  0.1-  0.0
    220224 F52  0.3-  0.2-    220225 568  0.0   0.0     220226 807  0.3-  0.1-
    220224 F52  0.1+  0.1-    220225 568  0.0   0.0     220226 807  0.3-  0.1+
    220224 F52  0.1+  0.1+    220225 568  0.0   0.0     220226 807  0.0   0.1+
    220224 F52  0.1-  0.1-    220226 033  0.5+  0.7-    220226 I52  0.2+  0.3+
    220224 F52  0.3+  0.1+    220226 033  0.1+  0.3+    220226 I52  0.1+  0.4-
    
    Ephemeris:
    2022 DO1                 a,e,i = 1.69, 0.52, 2                   q = 0.8080
    Date    TT    R. A. (2000) Decl.     Delta      r    Elong.  Phase     V
    2022 01 27    10 19 57.2 +07 09 08   0.3417  1.2971   152.3    20.6    26.0
    ...
    2022 02 11    10 32 10.0 +06 30 50   0.1947  1.1756   164.5    13.0    24.3
    ...
    2022 02 19    10 43 58.8 +06 24 10   0.1248  1.1115   169.9     9.0    23.1
    ...
    2022 02 25    11 04 49.6 +06 25 42   0.07547 1.0644   171.2     8.2    21.9
    2022 02 26    11 11 05.6 +06 26 26   0.06751 1.0567   170.7     8.7    21.6
    2022 02 27    11 18 59.0 +06 27 07   0.05966 1.0490   169.8     9.6    21.4
    ...
    2022 03 05    14 23 02.4 +04 45 21   0.01909 1.0040   129.8    49.4    20.0
    ...
    2022 03 13    21 05 33.8 -05 11 03   0.05765 0.9479    36.3   141.6    27.5
    ...
    2022 03 28    21 59 23.8 -05 37 29   0.1809  0.8615    37.5   135.2    29.0
    
    M. P. C. Staff               (C) Copyright 2022 MPC           M.P.E.C. 2022-D65
    


    Read MPEC 2022-D64 Read MPEC 2022-D66


    MPEC number:

    Enter an MPEC number in one of the following forms:

    • 1997-B01 (the full form)
    • J97B01 (the packed version of the full form)
    • B01 (the abbreviated form)